Welcome to the New NWS' Forecast!
Most changes are behind the scenes, but click here for differences you might notice.

Regional Weather Roundup (RWR)

Issued by Tampa Bay Area, FL (TBW)

                            
541 
NZUS99 KTBW 201217
RWRTBW
Regional Weather Roundup National Weather Service Ruskin Florida
800 AM EDT MON AUG 20 2018

  
CITY           SKY/WX    TMP DP  RH WIND       PRES   REMARKS
Cross City     FAIR      75 N/A N/A CALM      30.09R                  
Williston        N/A    N/A N/A N/A MISG        N/A                   
Gainesville    FAIR      76  72  87 CALM      30.12R                  
Ocala          FAIR      74  72  93 CALM      30.11R                  
Crystal River    N/A     73  72  94 CALM      30.10R                  
Inverness        N/A    N/A N/A N/A CALM      30.11R                  
Leesburg       FAIR      77  76  96 CALM      30.11R                  
Orlando        FAIR      76  74  93 SE5       30.10R                  
Brooksville    FAIR      74  72  93 CALM      30.10R                  
Zephyrhills    FAIR      72  72  99 CALM      30.11R                  
Lakeland       SUNNY     73  72  94 CALM      30.10R                  
Winter Haven   FAIR      77  74  90 SE5       30.11R                  
Bartow         SUNNY     72 N/A N/A CALM      30.10R                  

CITY           SKY/WX    TMP DP  RH WIND       PRES   REMARKS
Tampa Intl     FAIR      80  73  79 CALM      30.09R                  
Tampa Exec     FAIR      72  72 100 CALM      30.09R                  
MacDill AFB    SUNNY     77  75  92 CALM      30.08R                  
Peter O Knight   N/A    N/A N/A N/A E3        30.09R                  
Plant City     FAIR      75  73  94 CALM      30.11R                  
Clearwater     FAIR      78  77  96 CALM      30.08R                  
St Petersburg  FAIR      80  73  79 SE7       30.06R                  
Sarasota       FAIR      75  75 100 SE5       30.07R                  
Sebring        FAIR      75  73  92 CALM      30.09S                  
Punta Gorda    FAIR      76  72  87 E3        30.10R                  
Ft Myers       FAIR      74  72  93 E5        30.07R                  
Ft Myers-RSW   FAIR      74  71  91 NE5       30.08R                  

STATION/POSITION SKY/WX   TEMP WIND        PRES    VSBY
                          AIR  DIR/SP/G
                          (F)  (DEG/KT/KT) (MB)    (MI)
Keaton Beach               79   90/  3/  3 1018.9R
Sand Key                   84              1017.0R
039 Panama City            84  190/  4/  6 1017.6R
003 Captiva                85  150/  4/  6 1017.4
Venice                     77   90/  6/  7   N/A
Cedar Key                  81  160/ 11/ 13 1019.1R

CITY           SKY/WX    TMP DP  RH WIND       PRES   REMARKS
Tallahassee    FAIR      74  73  97 CALM      30.07R                  
Daytona Beach  FAIR      75  75 100 W3        30.10R                  
Melbourne      FAIR      79  73  82 CALM      30.09R                  
W Palm Beach   FAIR      84  77  79 S5        30.08R                  
Miami          FAIR      83  78  85 SE6       30.07R                  
Key West       MOSUNNY   82  75  78 E9        30.04R                  
San Juan, PR   MOSUNNY   82  75  78 E8        30.06R                  
Cancun, MX     PTCLDY    82  79  89 NE5       29.97S